Location: Groß Eilstorf
(52.8200°N, 9.4552°E)
Time: 11:33:45
(UTC+00:00)

SeaSat 1 - Pass Details

Date: 15 May 2026
Orbit: 736 x 739 km, 108.0° (Epoch: 6 June)

Event Time Altitude Azimuth Distance (km) Brightness Sun altitude
Exits shadow 22:42:55 - 110° (ESE) 2,385 4.8 -17.7°
Reaches altitude 10° 22:43:17 10° 108° (ESE) 2,249 4.7 -17.7°
Maximum altitude 22:47:42 35° 44° (NE) 1,189 3.8 -17.8°
Drops below altitude 10° 22:52:07 10° 340° (NNW) 2,261 6.1 -17.9°
Sets 22:54:32 0° 332° (NNW) 3,188 7.0 -17.9°
